CDT,Max TemperatureF,Mean TemperatureF,Min TemperatureF,Max Dew PointF,MeanDew PointF,Min DewpointF,Max Humidity, Mean Humidity, Min Humidity, Max Sea Level PressureIn, Mean Sea Level PressureIn, Min Sea Level PressureIn, Max VisibilityMiles, Mean VisibilityMiles, Min VisibilityMiles, Max Wind SpeedMPH, Mean Wind SpeedMPH, Max Gust SpeedMPH,PrecipitationIn, CloudCover, Events, WindDirDegrees
2011-10-1,71,54,37,30,22,12,65,35,10,30.31,30.24,30.18,10,10,10,14,6,20,0.00,0,,149
2011-10-2,80,63,46,34,26,10,62,32,7,30.20,30.16,30.10,10,10,10,15,8,21,0.00,0,,174
2011-10-3,82,64,46,34,26,12,58,28,7,30.19,30.15,30.10,10,10,5,16,7,24,0.00,0,,159
2011-10-4,87,72,57,37,30,21,41,25,9,30.14,30.06,29.99,10,10,5,18,9,24,0.00,0,,163
2011-10-5,84,72,60,41,25,-11,45,24,4,30.06,30.02,29.96,10,10,10,23,10,29,0.00,0,,173
2011-10-6,80,68,57,36,29,18,44,25,10,29.99,29.93,29.84,10,10,7,24,11,39,0.00,1,,156
2011-10-7,82,75,68,54,47,32,47,37,23,29.92,29.86,29.83,10,10,7,33,21,41,0.00,3,,182
2011-10-8,75,70,64,57,52,45,77,53,36,30.09,30.02,29.93,10,10,7,23,13,30,0.21,5,Rain,185
2011-10-9,80,70,59,59,49,34,88,54,20,30.17,30.11,30.03,10,10,5,16,6,28,0.00,3,,149
2011-10-10,71,63,55,55,48,37,88,63,29,30.04,29.98,29.90,10,10,7,17,7,24,0.06,3,Rain,181
2011-10-11,77,64,51,54,45,34,88,58,21,29.92,29.84,29.74,10,10,10,16,8,24,0.00,1,,173
2011-10-12,66,60,51,55,52,45,88,76,55,29.76,29.73,29.70,10,10,7,12,4,,0.02,6,Rain,333
2011-10-13,68,56,44,46,33,16,87,53,14,29.81,29.77,29.73,10,10,10,28,10,36,0.00,0,,306
2011-10-14,62,52,41,39,30,16,81,52,16,29.95,29.87,29.80,10,10,10,29,12,39,0.00,1,,307
2011-10-15,68,52,35,36,26,9,87,51,11,30.02,29.94,29.79,10,10,10,15,6,13,0.00,1,,253
2011-10-16,59,49,39,37,28,10,87,50,15,30.04,29.97,29.81,10,10,10,21,11,30,0.00,1,Rain,322
2011-10-17,57,44,30,27,20,9,75,42,14,30.02,30.00,29.97,10,10,7,18,7,25,0.00,1,,300
2011-10-18,51,40,30,28,19,7,80,45,16,30.10,30.05,29.97,10,10,7,23,10,30,0.00,1,,338
2011-10-19,44,34,24,25,19,16,69,51,34,30.14,30.11,30.08,10,10,10,14,8,21,0.00,4,,355
2011-10-20,53,40,26,30,23,16,86,57,22,30.07,30.04,30.00,10,10,4,12,6,16,0.00,0,,333
2011-10-21,66,48,30,30,23,19,69,47,17,30.05,30.03,30.00,10,10,5,14,4,18,0.00,0,,222
2011-10-22,62,50,39,37,31,18,81,48,18,30.15,30.09,30.02,10,10,5,13,3,,0.00,2,Rain,98
2011-10-23,73,58,42,45,35,21,87,54,16,29.99,29.91,29.84,10,10,5,24,8,29,0.00,1,,250
2011-10-24,71,55,39,37,29,19,81,47,15,30.06,30.00,29.84,10,10,3,12,3,17,0.00,0,,156
2011-10-25,60,52,44,36,31,27,66,47,31,30.02,29.80,29.71,10,10,10,20,9,28,0.00,0,,38
2011-10-26,50,44,37,37,32,27,81,64,40,30.14,30.09,30.04,10,10,10,14,7,18,0.00,3,,329
2011-10-27,53,40,26,28,19,7,86,50,15,30.12,30.09,30.07,10,10,7,15,5,20,0.00,1,,281
2011-10-28,55,40,26,28,13,0,80,38,10,30.16,30.11,30.06,10,10,7,22,8,33,0.00,1,,290
2011-10-29,59,44,28,16,11,5,59,30,13,30.10,29.96,29.81,10,10,2,17,4,23,0.00,1,,154
2011-10-30,53,45,37,34,23,12,81,44,19,30.03,29.92,29.81,10,10,10,26,12,33,0.00,1,,308
2011-10-31,62,43,24,25,16,3,80,48,9,30.05,30.00,29.89,10,7,0,16,5,21,0.00,0,,202